This is the latest recevied weather packets stored in our database for station/object EA6AMI-5. If no packets are shown the sender has not sent any weather packets the latest 10 day(s).
| Time | Temp. | Humidity | Pressure | Rain* | Wind** | Luminosity | Snow |
|---|---|---|---|---|---|---|---|
| 1777538163 | 20° C | 70% | 1015.9 hPa | 0 mm | - | 476 W/m² | - |
| 1777537623 | 19.44° C | 72% | 1016 hPa | 0 mm | - | 416 W/m² | - |
| 1777537083 | 19.44° C | 73% | 1015.9 hPa | 0 mm | - | 420 W/m² | - |
| 1777536544 | 18.89° C | 75% | 1016.1 hPa | 0 mm | - | 407 W/m² | - |
| 1777536003 | 18.33° C | 76% | 1016.1 hPa | 0 mm | - | 369 W/m² | - |
| 1777535643 | 18.33° C | 78% | 1015.9 hPa | 0 mm | - | 341 W/m² | - |
| 1777535103 | 18.33° C | 78% | 1016 hPa | 0 mm | - | 271 W/m² | - |
| 1777534563 | 18.33° C | 78% | 1015.7 hPa | 0 mm | - | 285 W/m² | - |
| 1777534024 | 17.22° C | 81% | 1015.5 hPa | 0 mm | - | 242 W/m² | - |
| 1777533483 | 17.22° C | 82% | 1015.5 hPa | 0 mm | - | 172 W/m² | - |
| 1777532944 | 16.67° C | 84% | 1015.4 hPa | 0 mm | - | 269 W/m² | - |
| 1777532403 | 16.67° C | 86% | 1015.4 hPa | 0 mm | - | 168 W/m² | - |
| 1777532043 | 16.11° C | 87% | 1015.5 hPa | 0 mm | - | 140 W/m² | - |
| 1777531504 | 16.11° C | 87% | 1015.3 hPa | 0 mm | - | 103 W/m² | - |
| 1777530963 | 16.11° C | 88% | 1015.2 hPa | 0 mm | - | 106 W/m² | - |
| 1777530424 | 16.11° C | 88% | 1015.3 hPa | 0 mm | - | 80 W/m² | - |
| 1777529883 | 16.11° C | 89% | 1015.1 hPa | 0 mm | - | 59 W/m² | - |
| 1777529344 | 16.11° C | 89% | 1015.2 hPa | 0 mm | - | 51 W/m² | - |
| 1777528803 | 15.56° C | 90% | 1015.2 hPa | 0 mm | - | 38 W/m² | - |
| 1777528444 | 15.56° C | 90% | 1015.2 hPa | 0 mm | - | 25 W/m² | - |
| 1777527904 | 15.56° C | 90% | 1015.2 hPa | 0 mm | - | 20 W/m² | - |
| 1777527363 | 15.56° C | 89% | 1015.1 hPa | 0 mm | - | 13 W/m² | - |
| 1777526823 | 15.56° C | 90% | 1014.9 hPa | 0 mm | - | 13 W/m² | - |
| 1777526283 | 15.56° C | 90% | 1014.6 hPa | 0 mm | - | 10 W/m² | - |
| 1777525744 | 15.56° C | 90% | 1014.5 hPa | 0 mm | - | 6 W/m² | - |
* Rain latest hour (hover to see other rain measurements)
** Current wind speed in m/s (hover to see current wind gust speed)